Orbital Elements at Epoch 2459200.5 (2020-Dec-17.0) TDB
Reference: JPL 32 (heliocentric ecliptic J2000)
Element | Value | Uncertainty (1-sigma) | Units |
e | .2102930156236355 | 3.1027e-08 | |
a | 2.239683926832978 | 5.9284e-09 | au |
q | 1.768694039815485 | 6.906e-08 | au |
i | 3.139277116326663 | 3.4911e-06 | deg |
node | 40.83799887137123 | 6.1533e-05 | deg |
peri | 329.9754320562217 | 6.2157e-05 | deg |
M | 64.27571672857674 | 1.0559e-05 | deg |
tp | 2458981.913692317727 (2020-May-12.41369232) | 3.5464e-05 | TDB |
period | 1224.27371907675 3.35 | 4.861e-06 1.331e-08 | d yr |
n | .2940518892061845 | 1.1675e-09 | deg/d |
Q | 2.71067381385047 | 7.1751e-09 | au |
|
| | Orbit Determination Parameters
Additional Information
|